Regional Weather Roundup
Issued by NWS Green Bay, WI

Home | Current Version | Previous Version | Text Only | Print | Product List | Glossary On
Versions: 1 2 3 4 5 6 7 8 9 10 11 12 13 14 15 16 17 18 19 20 21 22 23 24 25 26 27 28 29 30 31 32 33 34 35 36 37 38 39 40 41 42 43 44 45 46 47 48 49 50
000
ASUS43 KGRB 120510
RWRGRB

NORTH-CENTRAL AND NORTHEAST WISCONSIN REGIONAL WEATHER ROUNDUP
NATIONAL WEATHER SERVICE GREEN BAY WI
1200 AM CDT SAT JUL 12 2014

WIZ005-009-010>012-018-019-120600-
NORTH CENTRAL WISCONSIN

CITY           SKY/WX    TMP DP  RH WIND       PRES   REMARKS
IRONWOOD       MOCLDY    70  63  78 SW8       29.98F
MANITOWISH WTR CLOUDY    66  64  92 SW6       30.04F
ARBOR VITAE    CLOUDY    67  63  86 S6        30.05F
EAGLE RIVER    CLOUDY    67  58  74 SW7       30.05F
LAND O LAKES   CLOUDY    68  62  80 SW5       30.05F
RHINELANDER    MOCLDY    66  59  78 SW9       30.07S
PHILLIPS       CLOUDY    67  64  90 S5        30.05R
ANTIGO         CLEAR     62  58  86 SW5       30.08S
TOMAHAWK       CLOUDY    66  60  80 CALM      30.07S
MERRILL        MOCLDY    67  61  81 SW3       30.07S
$$

WIZ013-073-120600-
NORTHEAST WISCONSIN

CITY           SKY/WX    TMP DP  RH WIND       PRES   REMARKS
IRON MOUNTAIN  CLOUDY    69  56  62 SW8       30.04R
MARINETTE      CLOUDY    66  57  72 SW5       30.05S
OCONTO         CLOUDY    69  57  65 CALM      30.05S
$$

WIZ017-030-035>037-045-120600-
CENTRAL WISCONSIN

CITY           SKY/WX    TMP DP  RH WIND       PRES   REMARKS
MEDFORD        MOCLDY    66  63  88 S6        30.06F
WAUSAU         CLOUDY    70  60  70 S7        30.05F
MOSINEE        CLOUDY    66  61  82 S7        30.08F
MARSHFIELD     PTCLDY    68  62  81 S7        30.06S
WISC RAPIDS    CLEAR     69  60  73 S7        30.08S
STEVENS POINT  MOCLDY    67  58  72 S7        30.07F
WAUPACA        CLOUDY    69  60  72 CALM      30.08S
SHAWANO        CLOUDY    72  58  62 SW6       30.06F
CLINTONVILLE   PTCLDY    68  55  64 SW8       30.06S
$$

WIZ038-039-048-051-120600-
FOX VALLEY

CITY           SKY/WX    TMP DP  RH WIND       PRES   REMARKS
NWS GREEN BAY  MOCLDY    68  56  65 S7        30.06F
APPLETON       CLOUDY    68  54  60 SW9       30.09S
OSHKOSH        MOCLDY    64  58  80 S6        30.08S
FOND DU LAC    PTCLDY    63  57  81 S6        30.09F
$$

WIZ022-050-052-120600-
EAST CENTRAL WISCONSIN

CITY           SKY/WX    TMP DP  RH WIND       PRES   REMARKS
STURGEON BAY   PTCLDY    66  54  63 S8        30.08R
MANITOWOC      PTCLDY    67  54  63 S6        30.09F
SHEBOYGAN      CLOUDY    64  55  72 S5        30.10F
$$

LMZ563-521-522-541>543-120600-
LAKESHORE

STATION/POSITION TIME  TEMP    WIND        PRES    VSBY  WAVE
                       AIR SEA DIR/SP/G                  HT/PER
                 (UTC) (F)     (DEG/KT/KT) (MB)    (MI)  (FT/S)
SHEBOYGAN LKSHOR 0500   68     200/ 10/ 10 1019.1F
KEWAUNEE LKSHORE 0500   53     180/ 10/ 12 1019.1F
NORTHPORT PIER   0500   62     150/  5/  7 1017.6S
N MID LAKE BUOY  0500   58 53  200/ 14/ 16 1017.5R         3/ 4
MENOMINEE LKSHOR 0500   69     190/  8/ 10 1018.3R
$$



USA.gov is the U.S. government's official web portal to all federal, state and local government web resources and services.